[[{"header":{"parameterUnit":"m.s-1","parameterCategory":1,"la1":30.2991,"la2":30.254,"lo1":-89.0895,"lo2":-89.0444,"dy":0.0017,"dx":0.0017,"nx":28,"ny":28,"refTime":"2024-05-16T03:00:00:Z","depth":0,"parameterNumber":2,"parameterNumberName":"U-component_of_WINDS"},"data":[0,0,0,0,0,0,0,0,0,0,0,0,0,0,0,0,0,0,0,0,0,0,0,0,0,0,0,0,0,0,0,0,0,0,0,0,0,0,0,0,0,0,0,0,0,0,0,0,0,0,0,0,0,0,0,0,0,0,2.6647,2.6648,0,2.667,2.667,2.6671,2.6673,2.6672,2.6672,2.6672,2.6695,2.6696,2.6697,0,0,0,0,0,0,0,0,0,0,0,0,0,2.6608,2.6609,2.6647,2.6648,2.6648,2.667,2.667,2.6671,2.6673,2.6672,2.6672,2.6672,2.6695,2.6696,2.6697,0,0,0,0,0,0,0,0,0,0,0,0,0,2.6628,2.6609,2.6647,2.6652,2.6652,2.667,2.667,2.6671,2.6673,2.6672,2.6672,2.6672,2.6695,2.6696,2.6697,2.6713,0,0,2.6701,2.6702,0,0,0,0,0,0,0,0,2.6626,2.6629,2.6651,2.6651,2.6652,2.6668,2.6665,2.6685,2.6673,2.6665,2.6672,2.6671,2.6687,2.6689,2.6694,2.6714,2.6715,2.6701,2.6702,2.6703,2.6703,0,0,0,0,0,0,0,2.6625,2.6628,2.6656,2.6651,2.6652,2.6653,2.6656,2.6669,2.6678,2.6666,2.6666,2.6668,2.6687,2.6692,2.6694,2.6715,2.6701,2.6703,2.6703,2.6704,2.6752,2.6753,0,0,0,0,0,0,2.6623,2.6627,2.6656,2.6657,2.6638,2.6654,2.6657,2.6663,2.6677,2.6679,2.6669,2.6668,2.669,2.6693,2.6695,2.6716,2.6703,2.6704,2.6705,2.6752,2.6752,2.6753,0,0,0,0,0,0,2.6622,2.6625,2.6655,2.6642,2.6646,2.6655,2.6663,2.6664,2.6669,2.668,2.6682,2.6673,2.669,2.6693,2.6709,2.6717,2.6705,2.6706,2.6751,2.6752,2.6752,2.6756,0,0,0,0,0,0,2.6621,2.6625,2.663,2.6642,2.6647,2.6667,2.6663,2.6665,2.6672,2.6671,2.6684,2.6686,2.669,2.6707,2.671,2.6718,2.6707,2.675,2.6751,2.6752,2.6755,2.6757,2.6758,0,0,0,0,0,2.6619,2.663,2.663,2.6634,2.6653,2.6668,2.667,2.6675,2.6672,2.6678,2.6685,2.6685,2.6715,2.6709,2.6712,2.6721,2.675,2.6751,2.6752,2.6755,2.6757,2.6758,0,0,0,0,0,0,2.6617,2.6631,2.6632,2.6646,2.6656,2.6668,2.6675,2.6677,2.6687,2.6687,2.6693,2.6696,2.6712,2.6718,2.671,2.6738,2.6732,2.6734,2.6733,2.6735,2.6736,2.6735,2.6708,0,0,0,0,0,2.6619,2.6629,2.6641,2.6652,2.6657,2.6666,2.6672,2.6675,2.6686,2.669,2.6698,2.6708,2.672,2.6728,2.6739,2.6756,2.676,2.6764,2.6766,2.6767,2.6769,2.6781,2.6783,2.6756,2.6756,2.6756,0,0,2.6622,2.663,2.6636,2.6652,2.666,2.6672,2.6669,2.6681,2.669,2.6691,2.6707,2.6714,2.6726,2.6743,2.6751,2.6749,2.6777,2.6768,2.6769,2.677,2.6782,2.6785,2.6787,2.6757,2.6757,2.6757,0,0,2.6633,2.664,2.6651,2.666,2.6672,2.6678,2.6681,2.6693,2.6698,2.6714,2.6716,2.6728,2.6748,2.6757,2.6764,2.6782,2.6784,2.6786,2.6794,2.6805,2.6808,2.6809,2.6818,2.682,2.6788,2.6788,2.6788,0,2.6634,2.6651,2.6657,2.6669,2.6677,2.668,2.6693,2.6701,2.6717,2.6722,2.672,2.6747,2.6755,2.6776,2.678,2.6785,2.679,2.6784,2.6807,2.6809,2.6811,2.6819,2.6821,2.6788,2.6788,2.6788,2.6788,0,2.6654,2.6666,2.6674,2.669,2.6699,2.6711,2.672,2.6728,2.6732,2.6738,2.6756,2.6767,2.6781,2.6787,2.6789,2.6808,2.6807,2.6805,2.68,2.6813,2.6821,2.6824,2.6788,2.6788,2.6788,2.6788,0,0,2.6662,2.6683,2.6686,2.6695,2.671,2.6719,2.6733,2.6748,2.6756,2.6768,2.678,2.6799,2.6798,2.6807,2.6811,2.6821,2.6838,2.6819,2.6819,2.6823,2.6862,2.6864,2.6867,2.6839,2.6839,2.684,2.6862,0,2.6676,2.67,2.6707,2.6728,2.674,2.6745,2.6757,2.6769,2.6776,2.6789,2.6797,2.6811,2.6808,2.6814,2.6824,2.6833,2.6846,2.6832,2.6852,2.6853,2.685,2.6871,2.6872,2.6892,2.6865,2.6865,2.6866,0,2.6694,2.6707,2.673,2.6746,2.6751,2.6762,2.6778,2.6789,2.6804,2.6809,2.682,2.6824,2.684,2.6834,2.6858,2.6848,2.6858,2.6864,2.6865,2.6867,2.686,2.6875,2.6899,2.6902,2.687,2.687,2.6869,0,2.67,2.6723,2.674,2.6747,2.6766,2.6774,2.6782,2.6796,2.6806,2.682,2.6827,2.6842,2.6851,2.6864,2.6873,2.6868,2.6897,2.6891,2.6903,2.6903,2.6909,2.6908,2.6935,2.6913,2.6913,2.6913,2.6913,0,2.6715,2.6729,2.6743,2.6754,2.677,2.6779,2.6796,2.6804,2.6817,2.6831,2.6836,2.6848,2.6859,2.6874,2.6881,2.6901,2.6905,2.691,2.6912,2.691,2.691,2.6916,2.6916,2.6914,2.6914,2.6913,2.6913,0,2.6724,2.6734,2.6753,2.677,2.6775,2.6787,2.6802,2.6814,2.6822,2.6839,2.6844,2.6858,2.6876,2.6886,2.6908,2.6913,2.6936,2.6937,2.6931,2.6932,2.6944,2.6944,2.6977,2.6983,2.6956,2.6956,2.6956,0,2.6733,2.6744,2.6763,2.6772,2.6781,2.6796,2.6806,2.6817,2.6827,2.6846,2.6856,2.6874,2.6889,2.6918,2.6931,2.6949,2.6951,2.6961,2.6953,2.6952,2.6953,2.6952,2.6955,2.6963,2.6963,2.6963,2.6963,0,2.6748,2.6753,2.6767,2.6785,2.6797,2.6811,2.6825,2.6833,2.6846,2.6858,2.6877,2.6889,2.6913,2.6932,2.6952,2.6962,2.6965,2.6966,2.697,2.6968,2.6965,2.6969,2.6936,2.6965,2.6965,2.6964,2.6964,2.6964,2.6758,2.6769,2.6785,2.6802,2.6814,2.6828,2.684,2.6851,2.6867,2.6887,2.6893,2.6913,2.693,2.6957,2.6968,2.6985,2.6983,2.6988,2.699,2.6991,2.6993,2.6962,2.6988,2.6988,2.6988,2.6988,2.6988,0,2.6774,2.6785,2.6801,2.6821,2.6835,2.6838,2.6855,2.6867,2.6884,2.69,2.6916,2.6939,2.6958,2.6973,2.6994,2.7005,2.7007,2.701,2.701,2.7012,2.6992,2.6987,2.7008,2.7008,2.7008,2.7008,2.7008,2.7008,2.6784,2.6804,2.6812,2.6839,2.685,2.687,2.688,2.6893,2.6906,2.6932,2.6948,2.6958,2.6975,2.6997,2.7016,2.702,2.7028,2.703,2.7035,2.7016,2.7013,2.7011,2.7007,2.7032,2.7032,2.7054,2.7055,2.7055]},{"header":{"parameterUnit":"m.s-1","parameterCategory":1,"la1":30.2991,"la2":30.254,"lo1":-89.0895,"lo2":-89.0444,"dy":0.0017,"dx":0.0017,"nx":28,"ny":28,"refTime":"2024-05-16T03:00:00:Z","depth":0,"parameterNumber":3,"parameterNumberName":"V-component_of_WINDS"},"data":[0,0,0,0,0,0,0,0,0,0,0,0,0,0,0,0,0,0,0,0,0,0,0,0,0,0,0,0,0,0,0,0,0,0,0,0,0,0,0,0,0,0,0,0,0,0,0,0,0,0,0,0,0,0,0,0,0,0,-1.3647,-1.3645,0,-1.3447,-1.3445,-1.3443,-1.3467,-1.347,-1.3474,-1.3477,-1.3264,-1.3256,-1.3247,0,0,0,0,0,0,0,0,0,0,0,0,0,-1.4043,-1.4036,-1.3647,-1.3645,-1.3642,-1.3448,-1.3445,-1.3442,-1.3467,-1.3471,-1.3475,-1.3478,-1.3267,-1.3257,-1.3246,0,0,0,0,0,0,0,0,0,0,0,0,0,-1.386,-1.4033,-1.3648,-1.3631,-1.3628,-1.3448,-1.3445,-1.3441,-1.3466,-1.3471,-1.3476,-1.348,-1.327,-1.3258,-1.3245,-1.3066,0,0,-1.3205,-1.3199,0,0,0,0,0,0,0,0,-1.387,-1.3845,-1.3636,-1.3632,-1.3628,-1.3487,-1.3507,-1.3315,-1.3465,-1.3527,-1.3477,-1.3483,-1.3334,-1.3316,-1.3267,-1.3056,-1.3047,-1.3204,-1.3196,-1.319,-1.3186,0,0,0,0,0,0,0,-1.3883,-1.3854,-1.3568,-1.3633,-1.3628,-1.3631,-1.3611,-1.347,-1.3405,-1.3522,-1.3523,-1.35,-1.3332,-1.328,-1.3263,-1.3044,-1.3204,-1.3192,-1.3184,-1.3179,-1.2675,-1.267,0,0,0,0,0,0,-1.3901,-1.3864,-1.3574,-1.3562,-1.3764,-1.362,-1.3597,-1.3527,-1.3407,-1.3393,-1.3496,-1.3502,-1.33,-1.3278,-1.3255,-1.3037,-1.319,-1.3178,-1.3171,-1.2681,-1.2674,-1.2668,0,0,0,0,0,0,-1.3909,-1.3875,-1.3582,-1.3713,-1.3677,-1.3608,-1.353,-1.3521,-1.3468,-1.3387,-1.3375,-1.3454,-1.3303,-1.3273,-1.3113,-1.303,-1.3172,-1.316,-1.2688,-1.2679,-1.2671,-1.2601,0,0,0,0,0,0,-1.3921,-1.3878,-1.3811,-1.3712,-1.367,-1.3446,-1.3525,-1.3513,-1.3447,-1.3452,-1.3345,-1.3332,-1.3304,-1.3133,-1.31,-1.3015,-1.315,-1.2695,-1.2684,-1.2674,-1.261,-1.2591,-1.2575,0,0,0,0,0,-1.3935,-1.3797,-1.3807,-1.3772,-1.3585,-1.3441,-1.3416,-1.339,-1.344,-1.3371,-1.3319,-1.3335,-1.3045,-1.3116,-1.308,-1.2989,-1.27,-1.2687,-1.2675,-1.2618,-1.2595,-1.2575,0,0,0,0,0,0,-1.3885,-1.3784,-1.3794,-1.3621,-1.354,-1.3446,-1.3357,-1.3366,-1.3267,-1.3276,-1.3245,-1.322,-1.3058,-1.3008,-1.3089,-1.281,-1.2879,-1.2859,-1.2848,-1.2825,-1.2808,-1.2822,-1.3139,0,0,0,0,0,-1.3854,-1.3748,-1.3665,-1.352,-1.3479,-1.3426,-1.3362,-1.3349,-1.3262,-1.3227,-1.3163,-1.3076,-1.2966,-1.2893,-1.2787,-1.2604,-1.2579,-1.2523,-1.2506,-1.2492,-1.2473,-1.2372,-1.2345,-1.2627,-1.2627,-1.2628,0,0,-1.3789,-1.3721,-1.3655,-1.3509,-1.3444,-1.3333,-1.3396,-1.3276,-1.3192,-1.3208,-1.3053,-1.3003,-1.2904,-1.2732,-1.2653,-1.2685,-1.2391,-1.2476,-1.2465,-1.2454,-1.2356,-1.2329,-1.2306,-1.2619,-1.262,-1.2622,0,0,-1.3612,-1.3551,-1.3424,-1.3359,-1.3261,-1.3227,-1.3196,-1.3101,-1.3069,-1.2914,-1.2923,-1.2823,-1.2633,-1.2562,-1.2501,-1.2299,-1.231,-1.2265,-1.2171,-1.2072,-1.205,-1.203,-1.1956,-1.193,-1.2248,-1.2248,-1.2248,0,-1.3542,-1.3377,-1.3356,-1.3235,-1.3169,-1.3182,-1.3051,-1.2988,-1.286,-1.2813,-1.2852,-1.2614,-1.2549,-1.2359,-1.231,-1.2261,-1.2223,-1.2276,-1.2056,-1.2035,-1.2016,-1.1945,-1.1918,-1.2243,-1.2243,-1.2244,-1.2244,0,-1.3295,-1.3181,-1.3089,-1.2968,-1.2892,-1.2766,-1.2724,-1.2649,-1.2643,-1.2604,-1.2445,-1.2367,-1.2245,-1.22,-1.2191,-1.2008,-1.2031,-1.2063,-1.2132,-1.1985,-1.1918,-1.189,-1.2236,-1.2238,-1.2239,-1.224,0,0,-1.3079,-1.295,-1.2916,-1.2861,-1.2756,-1.2665,-1.254,-1.2423,-1.2359,-1.227,-1.2162,-1.2003,-1.2032,-1.1963,-1.1947,-1.186,-1.1703,-1.1902,-1.1899,-1.1866,-1.1495,-1.147,-1.1439,-1.1711,-1.1706,-1.1702,-1.1502,0,-1.2891,-1.2671,-1.2649,-1.2451,-1.2344,-1.2356,-1.2246,-1.2168,-1.2128,-1.2029,-1.1985,-1.1871,-1.1919,-1.1878,-1.1793,-1.174,-1.1628,-1.1755,-1.1607,-1.1603,-1.163,-1.1404,-1.1377,-1.1192,-1.1476,-1.1472,-1.1468,0,-1.2641,-1.2548,-1.2341,-1.225,-1.2204,-1.2107,-1.1998,-1.1904,-1.1816,-1.1793,-1.1716,-1.1712,-1.158,-1.1657,-1.1473,-1.156,-1.1499,-1.1464,-1.1456,-1.1439,-1.1525,-1.1378,-1.1133,-1.1104,-1.1427,-1.143,-1.1433,0,-1.2502,-1.2325,-1.2178,-1.2131,-1.2022,-1.1952,-1.1903,-1.182,-1.1751,-1.1656,-1.161,-1.15,-1.1438,-1.1352,-1.1317,-1.1376,-1.1135,-1.1208,-1.1109,-1.111,-1.1056,-1.1059,-1.0794,-1.102,-1.1021,-1.1021,-1.1022,0,-1.2292,-1.2164,-1.2114,-1.2023,-1.1879,-1.1855,-1.1712,-1.1666,-1.1592,-1.1491,-1.1494,-1.1398,-1.136,-1.1257,-1.1229,-1.108,-1.1053,-1.1029,-1.1022,-1.1027,-1.1029,-1.0984,-1.0995,-1.1014,-1.1016,-1.1017,-1.1018,0,-1.2111,-1.2073,-1.1913,-1.1824,-1.1799,-1.1697,-1.1619,-1.153,-1.1493,-1.1365,-1.1333,-1.1273,-1.1153,-1.1111,-1.0963,-1.0945,-1.0771,-1.0777,-1.0802,-1.08,-1.0702,-1.0711,-1.0397,-1.0353,-1.0611,-1.0608,-1.0606,0,-1.1979,-1.1881,-1.1783,-1.1716,-1.1666,-1.1558,-1.1489,-1.1461,-1.1388,-1.1281,-1.1204,-1.1086,-1.0989,-1.0795,-1.0737,-1.0624,-1.0625,-1.0523,-1.0608,-1.0616,-1.0621,-1.0626,-1.0615,-1.0506,-1.0504,-1.0502,-1.05,0,-1.1747,-1.1733,-1.1635,-1.1529,-1.1447,-1.1362,-1.1279,-1.1224,-1.1184,-1.1101,-1.098,-1.0905,-1.0757,-1.0637,-1.0523,-1.047,-1.0476,-1.0474,-1.0445,-1.0447,-1.0465,-1.0452,-1.0756,-1.0481,-1.0482,-1.0484,-1.0485,-1.0486,-1.1584,-1.1498,-1.1415,-1.1305,-1.1241,-1.1164,-1.1076,-1.1029,-1.0928,-1.0807,-1.0796,-1.0664,-1.0578,-1.0425,-1.0367,-1.0262,-1.0289,-1.0248,-1.0236,-1.0226,-1.0218,-1.0484,-1.0241,-1.0241,-1.0242,-1.0242,-1.0242,0,-1.1351,-1.1299,-1.1198,-1.1084,-1.0997,-1.1016,-1.0925,-1.085,-1.0735,-1.0656,-1.0561,-1.0421,-1.0306,-1.024,-1.0124,-1.0053,-1.0053,-1.0023,-1.0026,-1.0014,-1.02,-1.0236,-1.0025,-1.0025,-1.0025,-1.0025,-1.0025,-1.0025,-1.1219,-1.1073,-1.105,-1.0872,-1.082,-1.0693,-1.064,-1.0568,-1.0505,-1.0349,-1.0254,-1.0213,-1.0138,-1.0017,-0.9912,-0.9895,-0.9851,-0.9818,-0.9803,-0.9978,-1.0001,-1.0022,-1.0055,-0.9809,-0.9809,-0.9625,-0.9624,-0.9622]}]]